Notices

What's New in latest Release from April 7th, 2021:

- Updated Glossary, including Speed of Maximum Gust, and Total Hourly Precipitation

- Updated national and regional climate services offices contacts and prices information

- Addition of station inventory lists for 1981-2010, 1971-2000, and 1961-1990 Normals.

If you haven't already, please take our survey and provide feedback about our website: https://eccc.sondage-survey.ca/f/LanguageSelection.aspx?s=442ca660-fcf1-47c0-95a9-59707d6fd709

Hourly Data Report for September 10, 2004

SHERBROOKE A
QUEBEC

45°26'00.000" N
71°41'00.000" W
241.40 m
7028124
71610
YSC

Download Data

Hourly Data (September 2004)
Hourly Data Report for September 10, 2004
TIME
LST
Temp Definition
°C
Dew Point Definition
°C
Rel Hum Definition
%
Precip. Amount Definition
mm

Wind Dir Definition
10's deg

Wind Spd Definition
km/h
Visibility Definition
km
Stn Press Definition
kPa
Hmdx Definition


Wind Chill Definition


Weather Definition


00:00 20.6 19.9 96   22 9 1.4 97.68 28   Heavy Rain
01:00 18.4 17.2 93   28 17 4.0 97.75     Moderate Rain
02:00 16.3 15.0 92   27 13 15.0 97.85     Drizzle
03:00 15.2 13.5 90   26 13 15.0 97.91      
04:00 14.9 13.0 88   25 11 15.0 97.96      
05:00 15.0 13.2 89   25 15 15.0 98.00      
06:00 14.1 12.6 91   27 20 15.0 98.13     Drizzle
07:00 12.6 11.6 94   27 17 14.5 98.23     Rain
08:00 11.0 9.7 92   30 22 12.9 98.37     Drizzle
09:00 11.5 10.4 93   32 11 16.1 98.54     Drizzle
10:00 12.1 11.1 94   30 15 9.7 98.68     Drizzle,Fog
11:00 12.7 10.8 88   31 15 19.3 98.78     Cloudy
12:00 13.1 11.4 89   30 13 19.3 98.87     Cloudy
13:00 14.5 11.4 82   33 13 24.1 98.93     Cloudy
14:00 16.1 12.7 80   33 13 24.1 98.95     Mostly Cloudy
15:00 17.3 13.4 78   30 13 24.1 98.96     Mostly Cloudy
16:00 18.1 13.4 74   32 11 24.1 99.00     Mostly Cloudy
17:00 17.9 13.8 77   31 13 15.0 99.08      
18:00 16.7 12.8 78   31 7 15.0 99.16      
19:00 12.8 11.6 92     0 15.0 99.26      
20:00 11.3 10.4 94     0 15.0 99.32      
21:00 10.8 10.2 96   8 4 8.0 99.39      
22:00 10.1 9.7 97     0 15.0 99.42      
23:00 8.6 8.1 97     0 0.3 99.45      

Notes on Data Quality.

Legend

  • E = Estimated
  • M = Missing
  • NA = Not Available*
  • [empty] = Indicates an unobserved value
Date modified: